When you browse on this site, cookies collect data to enhance your experience and personalize the content and advertising you see.
Visit our Privacy Policy to learn more. By continuing to use the site, you agree to this use of cookies and data.
EN

Hourly Weather Zeliv

Today, 3 August, Monday

Time Temperature Precipitation Wind Pressure Humidity
00:00 +14°C° 0 mm 3 mps 735 mmHg 77%
01:00 +14°C° 0 mm 3 mps 735 mmHg 79%
02:00 +13°C° 0 mm 3 mps 735 mmHg 81%
03:00 +13°C° 0 mm 3 mps 735 mmHg 81%
04:00 +13°C° 0 mm 3 mps 735 mmHg 81%
05:00 +13°C° 0 mm 3 mps 734 mmHg 82%
06:00 +14°C° 0 mm 3 mps 734 mmHg 80%
07:00 +17°C° 0 mm 4 mps 734 mmHg 79%
08:00 +18°C° 0 mm 4 mps 735 mmHg 77%
09:00 +20°C° 0 mm 4 mps 734 mmHg 74%
10:00 +21°C° 0 mm 4 mps 734 mmHg 71%
11:00 +23°C° 0 mm 4 mps 734 mmHg 68%
12:00 +25°C° 0 mm 4 mps 734 mmHg 64%
13:00 +26°C° 0 mm 4 mps 734 mmHg 61%
14:00 +26°C° 0 mm 4 mps 733 mmHg 57%
15:00 +26°C° 0 mm 4 mps 733 mmHg 60%
16:00 +26°C° 0 mm 4 mps 733 mmHg 63%
17:00 +26°C° 0 mm 4 mps 733 mmHg 65%
18:00 +25°C° 0 mm 4 mps 732 mmHg 70%
19:00 +22°C° 0 mm 4 mps 732 mmHg 76%
20:00 +21°C° 0 mm 3 mps 732 mmHg 81%
21:00 +20°C° 0 mm 3 mps 732 mmHg 82%
22:00 +19°C° 0 mm 3 mps 732 mmHg 83%
23:00 +19°C° 0 mm 3 mps 732 mmHg 84%

Tomorrow, 4 August, Tuesday

Time Temperature Precipitation Wind Pressure Humidity
00:00 +18°C° 0 mm 3 mps 732 mmHg 84%
01:00 +18°C° 0 mm 3 mps 731 mmHg 84%
02:00 +18°C° 0 mm 3 mps 731 mmHg 84%
03:00 +17°C° 0 mm 3 mps 731 mmHg 84%
04:00 +17°C° 0 mm 3 mps 731 mmHg 83%
05:00 +17°C° 0 mm 3 mps 731 mmHg 82%
06:00 +18°C° 0 mm 4 mps 731 mmHg 79%
07:00 +20°C° 0 mm 4 mps 731 mmHg 76%
08:00 +21°C° 0 mm 5 mps 731 mmHg 74%
09:00 +22°C° 0 mm 5 mps 731 mmHg 72%
10:00 +23°C° 0 mm 5 mps 731 mmHg 70%
11:00 +25°C° 0 mm 5 mps 731 mmHg 68%
12:00 +26°C° 0 mm 5 mps 731 mmHg 66%
13:00 +27°C° 0 mm 5 mps 731 mmHg 64%
14:00 +29°C° 0 mm 6 mps 731 mmHg 62%
15:00 +28°C° 0.1 mm 5 mps 731 mmHg 64%
16:00 +28°C° 0.1 mm 4 mps 732 mmHg 66%
17:00 +28°C° 0.1 mm 4 mps 732 mmHg 68%
18:00 +26°C° 0.1 mm 3 mps 732 mmHg 72%
19:00 +25°C° 0.1 mm 3 mps 732 mmHg 77%
20:00 +23°C° 0.1 mm 2 mps 732 mmHg 81%
21:00 +21°C° 0.2 mm 2 mps 732 mmHg 84%
22:00 +20°C° 0.2 mm 2 mps 733 mmHg 86%
23:00 +20°C° 0.2 mm 2 mps 733 mmHg 89%

Day after tomorrow, 5 August, Wednesday

Time Temperature Precipitation Wind Pressure Humidity
00:00 +19°C° 0.2 mm 2 mps 734 mmHg 91%
01:00 +19°C° 0.2 mm 2 mps 734 mmHg 93%
02:00 +18°C° 0.2 mm 2 mps 734 mmHg 95%
03:00 +18°C° 0.7 mm 2 mps 734 mmHg 96%
04:00 +18°C° 0.7 mm 3 mps 735 mmHg 97%
05:00 +18°C° 0.7 mm 3 mps 735 mmHg 97%
06:00 +19°C° 0.2 mm 3 mps 735 mmHg 97%
07:00 +19°C° 0.2 mm 3 mps 736 mmHg 96%
08:00 +19°C° 0.2 mm 3 mps 736 mmHg 96%
09:00 +19°C° 0 mm 3 mps 736 mmHg 94%
10:00 +20°C° 0 mm 3 mps 737 mmHg 93%
11:00 +20°C° 0 mm 3 mps 737 mmHg 91%
12:00 +21°C° 0 mm 3 mps 737 mmHg 88%
13:00 +22°C° 0 mm 3 mps 737 mmHg 84%
14:00 +24°C° 0 mm 3 mps 737 mmHg 81%
15:00 +24°C° 0 mm 3 mps 737 mmHg 80%
16:00 +25°C° 0 mm 3 mps 738 mmHg 79%
17:00 +25°C° 0 mm 4 mps 738 mmHg 78%
18:00 +24°C° 0 mm 3 mps 738 mmHg 81%
19:00 +22°C° 0 mm 3 mps 738 mmHg 85%
20:00 +21°C° 0 mm 3 mps 738 mmHg 89%
21:00 +20°C° 0 mm 3 mps 738 mmHg 90%
22:00 +19°C° 0 mm 3 mps 739 mmHg 91%
23:00 +18°C° 0 mm 3 mps 739 mmHg 92%

6 August, Thursday

Time Temperature Precipitation Wind Pressure Humidity
00:00 +18°C° 0 mm 2 mps 739 mmHg 91%
01:00 +17°C° 0 mm 2 mps 739 mmHg 91%
02:00 +17°C° 0 mm 2 mps 739 mmHg 91%
03:00 +17°C° 0 mm 2 mps 739 mmHg 91%
04:00 +16°C° 0 mm 2 mps 739 mmHg 91%
05:00 +16°C° 0 mm 2 mps 739 mmHg 91%
06:00 +18°C° 0 mm 2 mps 740 mmHg 87%
07:00 +19°C° 0 mm 2 mps 740 mmHg 82%
08:00 +21°C° 0 mm 2 mps 740 mmHg 77%
09:00 +23°C° 0 mm 2 mps 741 mmHg 72%
10:00 +25°C° 0 mm 2 mps 741 mmHg 66%
11:00 +26°C° 0 mm 2 mps 741 mmHg 61%
12:00 +27°C° 0 mm 3 mps 741 mmHg 58%
13:00 +28°C° 0 mm 3 mps 741 mmHg 56%
14:00 +28°C° 0 mm 3 mps 741 mmHg 53%
15:00 +28°C° 0 mm 3 mps 741 mmHg 57%
16:00 +28°C° 0 mm 3 mps 741 mmHg 60%
17:00 +28°C° 0 mm 3 mps 741 mmHg 64%
18:00 +26°C° 0 mm 3 mps 741 mmHg 68%
19:00 +24°C° 0 mm 3 mps 741 mmHg 73%
20:00 +21°C° 0 mm 2 mps 741 mmHg 77%
21:00 +21°C° 0 mm 2 mps 741 mmHg 80%
22:00 +20°C° 0 mm 2 mps 741 mmHg 82%
23:00 +19°C° 0 mm 2 mps 741 mmHg 84%

7 August, Friday

Time Temperature Precipitation Wind Pressure Humidity
00:00 +19°C° 0 mm 2 mps 741 mmHg 86%
01:00 +18°C° 0 mm 2 mps 742 mmHg 87%
02:00 +18°C° 0 mm 2 mps 742 mmHg 89%
03:00 +18°C° 0 mm 2 mps 742 mmHg 90%
04:00 +17°C° 0 mm 2 mps 742 mmHg 91%
05:00 +17°C° 0 mm 2 mps 742 mmHg 92%
06:00 +19°C° 0 mm 2 mps 742 mmHg 89%
07:00 +20°C° 0 mm 2 mps 742 mmHg 86%
08:00 +21°C° 0 mm 2 mps 742 mmHg 83%
09:00 +24°C° 0.1 mm 3 mps 742 mmHg 77%
10:00 +26°C° 0.1 mm 3 mps 742 mmHg 71%
11:00 +27°C° 0.1 mm 4 mps 743 mmHg 66%
12:00 +27°C° 0.2 mm 4 mps 742 mmHg 65%
13:00 +28°C° 0.2 mm 4 mps 742 mmHg 63%
14:00 +28°C° 0.2 mm 4 mps 742 mmHg 62%
15:00 +28°C° 0.2 mm 4 mps 741 mmHg 65%
16:00 +27°C° 0.2 mm 4 mps 741 mmHg 68%
17:00 +27°C° 0.2 mm 4 mps 741 mmHg 71%
18:00 +26°C° 0.2 mm 4 mps 741 mmHg 77%
19:00 +24°C° 0.2 mm 3 mps 741 mmHg 83%
20:00 +21°C° 0.2 mm 3 mps 741 mmHg 89%
21:00 +20°C° 0 mm 3 mps 741 mmHg 88%
22:00 +20°C° 0 mm 3 mps 741 mmHg 88%
23:00 +19°C° 0 mm 3 mps 741 mmHg 88%

8 August, Saturday

Time Temperature Precipitation Wind Pressure Humidity
00:00 +18°C° 0 mm 3 mps 741 mmHg 89%
01:00 +17°C° 0 mm 3 mps 741 mmHg 90%
02:00 +17°C° 0 mm 3 mps 741 mmHg 91%
03:00 +16°C° 0 mm 3 mps 741 mmHg 91%
04:00 +16°C° 0 mm 2 mps 741 mmHg 91%
05:00 +15°C° 0 mm 2 mps 741 mmHg 92%
06:00 +16°C° 0 mm 3 mps 741 mmHg 88%
07:00 +18°C° 0 mm 3 mps 741 mmHg 85%
08:00 +19°C° 0 mm 3 mps 741 mmHg 82%
09:00 +20°C° 0 mm 3 mps 741 mmHg 77%
10:00 +21°C° 0 mm 3 mps 741 mmHg 72%
11:00 +23°C° 0 mm 4 mps 741 mmHg 67%
12:00 +23°C° 0 mm 4 mps 741 mmHg 65%
13:00 +25°C° 0 mm 4 mps 740 mmHg 64%
14:00 +25°C° 0 mm 3 mps 740 mmHg 62%
15:00 +25°C° 0 mm 3 mps 739 mmHg 64%
16:00 +25°C° 0 mm 4 mps 739 mmHg 65%
17:00 +25°C° 0 mm 4 mps 739 mmHg 67%
18:00 +24°C° 0 mm 3 mps 739 mmHg 73%
19:00 +21°C° 0 mm 3 mps 739 mmHg 78%
20:00 +20°C° 0 mm 2 mps 739 mmHg 84%
21:00 +19°C° 0 mm 2 mps 739 mmHg 86%
22:00 +18°C° 0 mm 2 mps 739 mmHg 87%
23:00 +17°C° 0 mm 2 mps 739 mmHg 89%
Show more